This is the latest recevied weather packets stored in our database for station/object W7BTL. If no packets are shown the sender has not sent any weather packets the latest 10 day(s).
| Time | Temp. | Humidity | Pressure | Rain* | Wind** | Luminosity | Snow |
|---|---|---|---|---|---|---|---|
| 1788036473 | 36.11° C | 39% | 1010.6 hPa | 0 mm | - | 949 W/m² | - |
| 1788036168 | 36.11° C | 42% | 1010.6 hPa | 0 mm | - | 957 W/m² | - |
| 1788035868 | 36.11° C | 41% | 1010.7 hPa | 0 mm | - | 964 W/m² | - |
| 1788035563 | 36.11° C | 39% | 1010.8 hPa | 0 mm | - | 928 W/m² | - |
| 1788035258 | 36.11° C | 39% | 1010.8 hPa | 0 mm | - | 983 W/m² | - |
| 1788034954 | 36.11° C | 40% | 1010.7 hPa | 0 mm | - | 994 W/m² | - |
| 1788034650 | 36.11° C | 40% | 1010.8 hPa | 0 mm | - | 1009 W/m² | - |
| 1788034346 | 35.56° C | 41% | 1010.7 hPa | 0 mm | - | 1004 W/m² | - |
| 1788034046 | 35.56° C | 41% | 1011 hPa | 0 mm | - | 1015 W/m² | - |
| 1788033745 | 35.56° C | 40% | 1010.7 hPa | 0 mm | - | 1013 W/m² | - |
| 1788033445 | 36.11° C | 39% | 1010.9 hPa | 0 mm | - | 1008 W/m² | - |
| 1788033141 | 35.56° C | 42% | 1011 hPa | 0 mm | - | 1006 W/m² | - |
| 1788032841 | 35.56° C | 42% | 1011 hPa | 0 mm | - | 1006 W/m² | - |
| 1788032541 | 35.56° C | 44% | 1011.1 hPa | 0 mm | - | 1030 W/m² | - |
| 1788032237 | 34.44° C | 47% | 1011.2 hPa | 0 mm | - | 1082 W/m² | - |
| 1788031933 | 33.89° C | 48% | 1011.3 hPa | 0 mm | - | 1001 W/m² | - |
| 1788031632 | 33.89° C | 46% | 1011.1 hPa | 0 mm | - | 819 W/m² | - |
| 1788031327 | 33.89° C | 45% | 1011.3 hPa | 0 mm | - | 918 W/m² | - |
| 1788031026 | 34.44° C | 46% | 1011.5 hPa | 0 mm | - | 541 W/m² | - |
| 1788030722 | 33.89° C | 49% | 1011.4 hPa | 0 mm | - | 775 W/m² | - |
| 1788030420 | 33.89° C | 48% | 1011.5 hPa | 0 mm | - | 789 W/m² | - |
| 1788030116 | 33.89° C | 49% | 1011.5 hPa | 0 mm | - | 694 W/m² | - |
| 1788029815 | 33.89° C | 47% | 1011.8 hPa | 0 mm | - | 863 W/m² | - |
| 1788029511 | 33.33° C | 50% | 1011.7 hPa | 0 mm | - | 1019 W/m² | - |
| 1788029210 | 33.89° C | 47% | 1011.7 hPa | 0 mm | - | 620 W/m² | - |
* Rain latest hour (hover to see other rain measurements)
** Current wind speed in m/s (hover to see current wind gust speed)